RH
16 18 13 15 22 20 18 20 21 21 19 18 17 17 19 19 16 10 6 4 3 2 2 2 3 3 4 4 6 6 4 3 2 2 3 2 2 2 3 3 2 3 2 2 2 2 2 2 3 3 4 6 8 10 12 14 15 15 16 17 14 13 14 15 17 19 22 24 28 33 34 35 32 26 21 16 12 11 11 11 11 11 12 13 14 16 19 22
9 9 8 9 15 18 20 22 21 19 18 18 17 17 18 14 8 5 4 3 2 2 2 3 3 4 5 5 6 6 3 2 2 2 2 2 2 2 3 3 3 3 3 3 2 3 3 3 3 3 4 5 8 10 12 14 16 16 18 18 16 17 18 18 21 23 25 27 31 31 30 28 25 21 19 17 14 11 13 14 14 12 13 15 18 20 22 24
9 8 8 10 15 19 22 22 19 18 18 17 15 14 12 7 4 3 3 2 2 3 3 4 5 5 5 4 5 5 3 1 2 2 2 2 2 3 3 3 3 3 3 3 3 3 3 3 3 4 4 5 7 10 12 13 15 17 18 18 18 18 19 20 21 24 26 28 28 22 18 18 20 23 24 23 19 17 20 21 18 15 14 15 19 24 26 28
8 8 10 12 17 21 22 20 18 18 17 14 12 10 7 4 3 3 3 3 3 3 5 6 5 4 4 3 2 4 4 2 2 2 2 3 3 3 3 3 3 3 3 4 4 4 4 4 4 4 5 5 7 10 13 15 16 18 17 18 20 19 20 21 24 27 25 23 22 16 15 19 24 28 30 27 24 24 27 27 24 20 19 18 20 25 31 33
9 10 13 16 19 21 20 18 18 17 13 9 7 5 3 3 3 3 4 4 4 5 6 5 4 4 2 2 2 3 4 3 3 3 3 3 3 3 3 4 4 4 5 4 5 5 5 5 5 5 5 5 6 9 12 14 16 17 16 18 19 17 18 22 26 29 23 16 17 20 22 25 29 31 31 27 26 29 31 33 30 25 25 25 23 26 34 40
12 14 16 18 20 19 18 17 17 13 7 5 3 3 3 4 4 5 5 5 6 6 5 4 3 3 2 2 2 2 3 3 3 3 3 3 4 4 4 5 5 5 5 6 6 6 6 6 6 6 6 6 6 8 10 10 10 12 12 13 13 13 17 23 27 29 26 19 17 21 22 22 26 29 28 24 24 27 30 35 34 30 31 31 30 30 36 44
16 17 18 20 20 17 17 17 13 7 4 3 2 3 4 5 6 6 6 6 6 5 4 3 2 2 2 2 2 3 3 3 3 4 4 5 5 5 6 6 6 6 7 7 7 7 7 7 7 7 7 7 7 8 8 8 8 8 9 10 12 15 19 25 24 23 24 21 19 19 17 17 21 23 21 18 18 21 28 34 34 32 35 36 36 35 39 45
18 19 19 19 17 16 17 14 8 3 2 2 3 5 5 5 5 5 5 5 5 4 3 2 2 3 3 3 3 3 4 4 4 5 5 6 6 6 7 7 7 7 7 7 7 7 8 7 8 8 7 7 7 8 7 7 8 9 11 12 13 14 17 20 19 18 20 21 20 18 15 15 17 17 15 13 14 18 25 29 30 33 37 39 39 40 42 43
19 19 19 17 15 15 14 9 3 2 3 3 5 6 5 4 3 3 4 4 3 3 3 3 3 3 3 3 3 3 4 5 5 6 7 7 7 7 7 7 7 7 7 7 7 8 8 8 8 8 8 7 7 7 6 6 9 11 13 14 14 13 14 16 17 21 24 24 21 17 15 15 17 16 15 14 16 19 24 28 31 35 38 41 43 44 43 40
18 18 17 15 14 12 8 4 2 3 4 5 6 5 3 2 2 3 3 3 3 3 3 3 3 3 3 3 4 4 6 6 7 7 7 7 7 7 7 7 7 7 8 7 7 8 8 8 8 9 8 7 7 6 6 8 11 13 15 18 19 18 17 16 19 24 25 22 18 17 18 20 21 19 17 18 20 23 25 30 34 38 43 45 46 45 45 45
15 16 15 12 10 6 3 3 3 4 6 7 7 5 3 3 3 3 3 3 3 3 3 3 3 4 5 5 5 5 7 8 8 8 8 8 8 7 7 7 8 8 8 8 9 9 9 10 9 9 8 8 7 6 7 9 11 12 15 20 21 21 19 16 17 18 17 16 17 20 20 21 21 19 18 20 22 23 23 26 30 37 45 46 46 48 50 50
12 13 11 8 5 3 3 4 5 7 8 7 6 4 3 3 3 3 4 4 4 4 3 3 4 5 7 6 6 7 8 8 8 9 8 8 8 8 8 8 9 9 9 10 10 10 10 10 10 9 9 9 8 8 8 9 8 9 14 19 22 22 18 12 11 12 13 16 20 19 17 18 20 18 20 22 23 23 24 24 26 35 44 45 48 53 55 55
11 10 7 4 3 4 5 6 7 7 6 5 4 3 3 4 4 4 4 4 5 5 4 5 5 7 8 7 7 8 9 9 10 10 9 9 9 9 9 10 10 10 11 11 11 11 11 11 11 10 10 10 10 10 8 8 8 10 15 19 20 18 14 10 11 12 14 17 18 16 16 18 21 22 24 26 27 26 27 29 33 43 48 49 55 58 59 59
10 6 3 4 5 6 7 7 6 4 3 4 3 3 3 4 4 4 5 5 6 6 6 7 7 8 8 8 9 9 10 11 10 10 10 10 10 9 10 11 11 11 11 12 12 12 12 12 12 11 11 11 11 10 9 10 10 12 15 15 14 13 12 12 13 13 13 14 15 16 17 18 21 24 26 28 27 25 32 41 47 55 57 58 61 62 62 64
5 3 4 6 7 7 8 7 5 3 3 3 3 3 4 4 4 4 6 8 8 8 8 8 9 9 9 9 10 11 11 11 11 11 11 11 10 11 11 12 12 12 12 12 12 12 13 13 13 12 12 12 12 11 12 12 12 13 14 14 15 15 15 14 14 14 14 15 16 18 19 19 21 24 26 27 24 27 41 52 57 62 64 65 66 66 68 68
4 5 6 7 8 8 7 6 4 3 3 3 4 4 4 4 4 4 7 9 10 10 10 10 10 9 9 10 11 11 11 11 11 11 11 12 11 11 12 13 12 12 13 13 12 12 13 13 13 13 13 13 13 13 13 14 14 16 18 19 19 17 15 14 15 16 17 18 19 21 22 22 23 25 26 27 27 32 48 58 62 67 68 69 70 71 72 72
6 7 8 8 7 6 5 5 4 3 4 4 4 4 5 5 5 6 7 9 11 11 11 12 12 11 10 11 11 11 12 12 12 12 12 12 12 12 13 12 12 13 13 13 13 13 13 13 13 13 13 14 14 14 14 16 17 19 22 22 20 16 15 15 16 18 20 21 22 24 26 27 27 28 28 31 35 39 51 62 66 70 72 72 74 74 75 75
7 8 8 7 5 4 4 4 4 4 4 4 5 5 6 6 7 8 8 9 11 11 12 11 12 12 11 12 12 12 13 13 12 12 12 12 12 12 11 12 13 13 12 13 13 12 13 13 13 14 13 13 14 15 16 19 22 23 23 21 18 16 16 17 18 20 21 23 26 27 29 31 30 29 31 38 44 48 56 65 70 73 75 76 77 77 77 77
9 9 8 6 5 5 4 4 4 4 5 5 6 7 7 8 9 9 10 11 11 11 13 12 12 12 12 13 13 13 13 13 13 13 12 11 11 11 11 11 12 12 12 12 11 12 13 13 13 13 13 15 16 17 20 22 24 26 25 20 17 17 17 18 19 21 23 25 27 28 30 31 30 30 35 43 49 53 60 69 74 77 79 79 80 80 80 79
10 9 6 5 5 4 4 4 4 5 6 6 8 8 8 10 10 10 11 10 10 11 13 14 13 13 13 14 14 14 13 13 13 13 12 10 10 12 12 11 12 12 12 11 11 12 13 13 14 14 16 17 17 19 21 22 25 28 26 20 17 18 18 19 21 23 25 28 29 31 32 32 33 35 40 47 51 55 63 72 77 80 82 82 82 82 82 82
9 7 6 5 4 4 4 4 5 6 7 8 10 10 9 10 10 10 10 9 10 12 14 14 14 14 14 14 14 13 13 14 13 11 11 10 10 11 11 11 11 11 11 12 12 13 13 14 15 16 17 17 18 19 20 22 25 25 22 19 18 19 20 22 26 28 31 33 34 33 35 37 40 43 45 49 54 62 68 75 80 82 84 84 84 84 84 85
7 6 6 6 5 4 4 5 7 8 9 10 11 10 10 10 10 10 10 10 12 13 14 15 15 14 13 13 13 12 13 13 12 11 10 10 10 10 11 11 11 12 12 12 12 13 14 14 16 17 17 17 18 19 20 23 21 20 20 19 20 21 23 26 29 32 35 37 34 32 37 43 44 44 46 51 58 67 73 77 81 83 85 85 85 85 85 87
7 6 7 6 5 4 5 7 9 9 9 9 10 11 11 10 10 11 10 11 12 14 15 15 14 14 13 13 12 11 12 11 11 10 9 10 10 10 10 10 12 13 12 12 13 14 14 16 17 17 17 18 18 18 19 20 19 20 21 20 21 23 28 32 31 32 34 35 34 35 43 46 43 40 45 54 61 67 74 78 81 83 84 85 85 85 86 85
7 7 7 6 4 5 6 9 9 9 9 10 10 10 10 11 11 12 11 11 12 13 14 14 13 13 13 12 11 11 11 11 12 10 10 11 10 10 10 11 12 13 13 13 13 14 15 17 18 18 19 19 19 19 19 20 21 23 22 22 24 26 31 34 33 32 32 32 33 38 44 40 37 43 49 54 61 68 75 78 80 82 84 86 86 85 85 84
6 6 6 5 5 6 8 9 8 8 10 11 10 9 10 11 11 12 12 11 12 13 13 14 13 12 13 12 11 11 12 12 12 11 11 11 10 12 11 11 13 14 15 14 15 16 16 17 19 19 20 20 20 21 21 23 25 24 23 24 27 29 31 33 34 34 35 36 33 36 51 47 37 44 50 52 60 67 73 77 78 81 84 86 86 84 84 84
5 5 5 5 7 8 9 9 8 10 11 10 10 9 10 10 11 13 12 11 12 13 13 14 13 13 13 13 12 11 12 13 12 12 12 11 12 13 13 13 13 14 15 15 16 17 17 19 20 21 22 21 21 22 24 27 27 25 24 27 30 32 33 33 34 36 39 41 34 33 53 58 43 40 45 49 59 66 71 76 77 80 84 85 84 83 85 86
5 5 5 7 8 9 10 9 9 10 10 10 9 9 11 11 13 14 13 14 15 14 14 15 15 15 14 14 13 12 13 13 13 13 12 12 14 13 14 15 13 15 16 17 18 18 19 20 21 24 23 21 23 26 28 29 27 25 26 30 33 33 34 35 35 38 38 39 36 31 42 54 48 42 44 47 56 64 71 76 78 81 83 82 83 85 88 90
6 8 9 10 10 10 10 9 9 9 9 9 8 10 12 12 14 14 13 17 18 15 16 16 16 17 16 14 14 12 13 13 13 12 12 13 14 14 16 16 14 16 17 18 19 19 19 21 24 26 23 21 25 30 31 29 27 28 30 33 35 34 35 37 37 38 37 40 42 35 38 54 52 43 46 50 52 61 70 76 79 80 81 82 86 90 90 88
10 11 11 10 10 9 9 9 9 9 9 9 10 12 13 12 13 12 12 16 17 16 17 17 17 18 17 15 14 12 12 13 13 13 14 14 14 14 16 17 16 17 19 19 19 20 20 23 26 25 23 23 27 31 31 28 28 31 32 33 33 32 34 39 41 37 37 43 44 37 40 54 55 45 48 54 54 61 71 76 80 82 85 87 89 88 84 80
11 11 10 9 9 8 8 8 8 8 8 10 11 12 13 14 13 11 14 16 15 16 18 17 17 17 16 15 13 12 12 13 13 14 14 15 15 15 16 18 17 18 20 19 20 21 21 25 27 25 24 25 28 31 30 29 32 33 34 34 31 32 37 42 40 35 41 47 43 38 39 51 61 53 48 57 61 66 76 82 85 87 89 88 84 81 79 78
10 10 9 8 8 7 7 6 7 7 8 10 11 12 13 13 11 11 16 17 15 16 18 18 18 15 14 13 12 12 12 12 13 13 13 14 15 14 15 17 16 18 19 17 18 20 21 25 26 24 24 25 28 30 29 31 33 33 36 37 35 37 41 43 41 41 53 56 45 40 42 54 65 57 52 62 66 70 80 86 89 89 85 80 77 76 79 84
10 9 8 7 6 5 5 6 6 7 8 9 11 13 13 12 12 14 16 15 14 16 17 18 17 15 14 13 12 12 12 12 13 14 14 15 15 14 15 18 18 19 20 19 19 19 21 25 25 24 24 26 29 30 30 32 32 35 37 38 49 57 56 57 56 53 58 57 46 43 51 59 58 52 55 62 64 69 75 81 86 83 76 75 77 79 85 91
8 7 6 5 4 5 6 6 7 7 8 9 10 12 11 12 16 17 16 16 16 16 17 17 17 15 14 13 13 12 13 13 14 15 15 16 17 16 18 20 21 22 23 23 22 21 23 24 24 25 25 27 33 32 32 33 35 41 40 42 60 71 72 75 68 60 61 57 48 48 60 64 55 52 57 56 58 65 69 76 80 76 74 76 78 82 87 87
6 5 5 4 4 6 7 8 8 8 8 8 10 11 10 13 17 17 17 17 16 17 17 17 16 16 14 13 13 12 13 14 15 16 16 16 17 18 19 21 21 23 24 25 26 27 30 30 26 26 27 31 35 34 35 36 37 42 41 44 52 56 69 78 70 68 73 67 57 54 63 66 57 55 56 51 53 61 67 74 75 74 76 77 78 82 83 80
5 5 5 5 5 6 8 9 9 8 8 8 9 9 10 14 16 17 17 17 17 17 17 16 16 16 15 14 14 13 14 16 15 16 16 16 19 20 20 21 22 23 23 26 29 30 32 31 27 28 30 33 35 35 37 37 38 42 43 47 50 47 56 64 62 63 69 70 65 56 57 56 50 51 52 52 60 65 69 74 77 78 76 76 81 82 81 78
5 6 6 7 7 7 8 9 9 9 8 9 9 9 11 14 16 16 17 18 17 16 16 16 15 15 15 13 14 15 15 16 16 16 17 17 20 22 21 22 22 23 25 28 32 33 33 29 26 30 33 34 37 37 38 40 40 44 46 48 51 51 54 63 66 59 60 73 68 54 52 48 47 54 56 61 72 74 77 80 79 77 76 78 83 83 79 69
7 7 8 9 9 9 9 8 9 9 8 9 10 11 12 14 16 16 17 18 17 15 16 15 14 14 14 13 14 15 15 16 16 17 18 19 21 23 22 22 23 24 26 28 32 35 35 29 26 31 34 34 37 37 39 42 43 46 51 51 51 55 56 64 74 70 70 78 65 48 51 53 54 62 66 71 76 79 84 81 75 78 82 84 85 80 67 57
8 8 9 9 9 9 9 8 8 8 9 10 10 11 14 15 15 16 17 17 16 15 14 14 14 14 14 14 14 14 15 16 16 17 19 19 21 24 23 22 24 25 25 29 31 32 36 35 30 31 35 35 37 40 39 41 45 48 49 51 55 62 64 72 84 85 84 83 67 53 54 56 57 63 71 79 81 83 83 76 78 85 85 86 81 65 57 71
8 8 8 8 8 8 7 8 8 8 9 10 10 13 15 15 16 17 16 16 15 14 14 14 14 14 15 15 14 15 15 16 17 18 20 20 22 24 24 23 24 25 25 28 31 32 37 42 37 31 34 36 36 41 41 43 48 49 48 51 55 61 69 78 82 78 80 85 78 69 63 58 59 64 72 80 82 82 80 80 85 85 82 81 66 57 77 98
8 8 7 7 7 7 7 7 8 9 10 11 11 14 15 16 17 17 16 15 14 13 13 13 13 14 14 14 15 15 16 17 18 19 20 21 22 23 24 23 24 25 26 27 30 32 36 44 42 33 34 38 41 45 47 48 51 50 50 54 58 61 63 66 66 63 73 83 82 83 79 64 60 66 71 76 79 79 81 84 84 82 77 66 58 76 100 87
8 8 7 6 7 7 7 8 9 10 11 11 13 15 16 16 17 16 16 15 14 13 13 13 13 13 14 14 15 16 16 17 18 19 21 21 22 23 23 24 24 25 27 27 30 32 35 42 44 37 35 37 40 43 46 48 50 50 51 53 61 66 63 70 75 65 67 78 80 92 96 74 61 65 69 74 79 80 83 84 83 75 61 57 78 102 93 66
8 7 6 6 7 8 8 9 10 11 11 12 14 15 16 16 16 16 15 14 14 13 12 13 13 13 14 15 15 16 16 17 18 20 21 21 23 23 23 24 25 25 28 29 30 32 34 39 43 41 37 37 39 41 43 46 46 46 49 53 59 62 66 82 89 74 75 85 81 88 93 73 60 65 71 76 80 82 83 81 72 53 46 71 98 89 63 60
6 6 7 7 8 8 10 11 11 11 12 13 15 16 16 16 15 15 14 14 13 13 13 13 13 14 15 15 16 17 17 18 19 20 21 22 23 23 24 25 25 26 29 30 31 33 34 38 42 40 36 35 38 42 45 47 47 47 51 55 58 63 67 73 76 79 90 93 88 94 93 72 61 67 74 78 82 85 80 65 49 41 54 79 77 50 42 59
6 6 7 8 9 9 11 11 11 12 13 14 15 16 16 16 15 14 14 13 13 13 14 13 14 15 15 15 16 17 17 18 19 20 21 22 23 23 24 25 25 28 30 31 33 35 36 39 44 48 50 49 48 50 51 50 49 50 54 57 57 59 62 66 75 87 91 88 94 103 94 74 66 72 76 80 86 84 64 40 34 48 61 57 39 32 42 60
6 6 7 8 10 11 11 12 12 13 13 15 16 16 16 15 14 13 13 13 13 13 14 14 14 15 15 16 16 17 18 19 20 21 22 22 23 24 25 25 27 28 31 33 35 37 38 40 46 55 63 68 67 64 59 55 52 52 54 58 57 56 63 74 86 95 94 93 97 97 89 80 74 73 76 83 86 71 41 23 27 40 39 27 28 41 48 55
5 6 7 8 10 12 11 11 13 14 14 15 16 16 16 15 13 12 12 13 13 13 13 14 15 15 15 16 17 17 18 19 20 21 22 23 24 24 25 26 27 29 32 34 36 39 41 41 46 51 55 61 63 59 55 54 54 55 55 57 58 61 68 78 89 98 100 100 95 84 83 87 81 75 80 84 77 53 27 20 24 23 16 18 33 44 39 36
6 7 8 9 11 12 12 12 13 15 15 16 16 16 16 14 13 12 12 13 13 13 14 14 15 15 16 16 17 18 18 19 20 21 22 23 24 25 26 27 28 31 33 35 38 41 43 44 47 50 52 54 55 53 52 53 54 56 56 56 58 63 69 79 90 96 99 103 96 80 82 91 83 76 83 84 67 39 20 18 20 15 14 22 34 32 22 20
6 7 8 9 10 12 12 12 14 16 16 16 16 15 15 14 13 12 12 12 13 13 14 14 15 16 16 17 17 18 19 20 21 22 23 24 24 26 27 27 30 33 34 37 39 41 45 48 48 49 49 49 50 50 51 54 56 55 54 55 60 66 74 83 89 91 96 103 96 83 86 87 76 75 80 70 47 26 15 15 15 12 13 18 20 15 16 32
6 7 8 10 11 12 12 13 14 16 17 17 16 15 14 13 12 12 12 13 13 14 15 15 15 16 17 18 18 18 20 20 21 22 23 24 25 26 27 28 32 33 35 38 40 42 47 48 50 55 50 43 46 51 52 54 53 51 54 60 64 69 77 84 88 91 94 93 87 84 80 70 68 75 64 37 20 15 12 12 10 10 12 11 11 18 39 66
6 7 8 11 12 12 12 13 15 16 17 17 16 14 13 12 12 12 12 13 13 14 15 15 16 17 17 18 19 20 21 21 22 23 24 25 26 27 28 30 31 34 36 38 40 44 47 47 52 58 52 43 45 51 52 52 51 51 58 62 64 70 78 84 90 92 91 87 82 78 73 69 68 56 29 12 12 13 11 10 8 10 12 11 21 48 77 93
6 7 9 11 12 12 13 14 15 17 17 17 15 13 12 12 12 12 12 13 14 14 15 16 16 17 18 19 20 21 22 22 23 24 25 26 27 28 29 30 32 35 37 39 42 43 46 48 50 55 55 48 46 51 52 48 49 54 59 63 70 78 83 87 89 90 88 84 79 80 88 85 60 25 9 10 12 10 10 10 10 12 12 18 46 80 97 99
7 8 9 11 12 13 13 14 16 17 18 17 15 13 12 12 12 13 13 13 14 15 16 16 17 18 19 20 21 22 22 23 24 25 25 27 28 29 30 30 33 36 37 40 43 43 46 49 48 53 59 50 46 55 54 47 53 60 63 69 78 82 85 86 85 86 84 76 78 92 94 67 29 9 10 13 9 10 12 11 15 16 16 38 77 99 99 98
Wind_Speed
14 14 14 16 15 11 8 7 6 3 1 3 4 4 4 5 6 6 6 7 7 7 7 7 7 8 9 10 11 11 12 12 13 16 14 13 13 13 14 13 12 11 11 10 10 10 10 10 10 9 9 9 10 10 11 11 12 13 15 17 19 19 19 18 18 19 20 19 17 17 17 19 20 20 20 19 19 18 18 18 19 19 20 21 22 23 23 24
12 12 12 13 13 11 8 6 4 2 2 4 4 4 5 6 6 6 7 7 7 7 7 8 9 9 10 11 11 11 14 15 16 15 13 13 14 14 14 14 13 12 12 12 12 12 12 12 12 12 10 10 10 10 11 12 13 14 16 18 19 18 18 17 18 18 19 19 19 20 21 21 20 18 18 18 17 16 17 17 18 18 18 18 19 21 22 23
10 11 12 12 12 10 7 5 3 1 3 5 4 5 6 7 6 6 7 7 7 7 8 9 10 10 10 12 12 12 14 16 15 13 12 13 14 14 15 14 14 14 15 15 14 14 15 14 14 14 12 11 11 11 12 13 14 15 17 19 18 17 17 17 18 18 19 19 19 19 19 18 17 18 18 19 19 18 18 18 18 18 17 17 18 19 20 21
10 11 12 12 11 9 6 4 1 3 4 4 5 6 7 7 7 7 7 7 8 9 9 10 10 10 12 13 13 13 12 13 13 12 13 14 14 15 15 15 16 15 15 14 14 15 15 15 14 14 13 12 12 12 13 14 15 16 16 18 18 18 19 18 18 18 18 18 16 15 15 17 19 20 20 20 21 21 20 19 19 19 18 18 18 19 20 21
11 12 12 11 10 8 6 3 2 4 4 5 6 7 7 7 7 8 8 9 10 10 10 11 11 12 14 13 13 15 13 11 14 14 14 15 15 15 14 15 14 13 13 13 14 15 15 15 15 14 13 13 13 12 13 14 15 16 16 17 19 20 20 18 17 16 17 16 15 16 18 20 21 21 21 21 22 22 23 22 19 19 19 19 19 19 20 21
11 12 12 11 9 7 4 2 3 4 5 6 7 7 7 7 8 9 10 10 11 11 11 12 12 13 13 11 12 17 15 12 13 14 14 15 15 14 14 14 13 13 15 16 16 16 15 15 15 15 14 14 14 13 14 15 16 17 18 18 19 20 19 17 17 17 18 17 17 19 21 22 22 22 22 23 24 25 25 22 20 21 21 20 20 20 20 21
11 11 10 9 7 5 3 3 4 5 6 6 7 7 8 9 9 10 11 11 11 11 12 12 12 11 12 13 15 17 15 13 13 14 15 14 14 14 14 14 15 16 17 16 16 16 16 16 16 16 15 14 14 14 14 15 16 18 18 18 19 20 19 18 19 20 20 20 20 22 22 22 22 21 22 24 25 26 24 21 22 23 22 21 21 21 22 23
11 10 9 8 5 3 3 4 5 6 6 6 7 8 9 10 11 11 11 11 11 11 12 12 11 11 13 15 16 15 13 13 14 15 15 15 15 16 15 15 16 16 16 16 16 17 17 16 16 16 15 14 14 14 15 16 18 18 18 18 18 18 18 19 20 21 21 21 22 22 22 22 21 21 22 23 24 24 23 22 23 23 22 22 23 22 24 26
11 10 8 6 4 3 4 5 6 6 7 7 8 10 11 12 12 12 12 12 13 12 11 9 9 11 13 15 15 14 14 15 15 15 16 16 17 17 17 17 17 17 17 18 18 18 17 17 17 16 15 15 15 15 17 18 17 17 17 17 17 16 17 19 20 22 22 22 22 23 23 22 22 21 22 23 23 23 23 23 23 23 24 24 24 25 27 29
10 8 6 4 3 4 4 6 7 7 8 9 10 12 13 13 13 13 13 13 13 12 11 10 11 13 15 17 15 13 14 15 15 16 17 18 18 18 18 18 18 18 18 19 18 18 18 18 17 17 16 16 16 18 19 17 16 15 16 17 17 17 18 19 20 20 21 23 24 25 25 24 22 22 23 23 22 22 23 24 24 25 25 25 26 28 30 31
9 7 5 4 4 5 6 7 8 9 10 11 11 12 13 13 12 12 13 13 13 13 13 14 14 14 15 13 10 10 14 15 17 18 18 19 19 19 19 19 19 19 18 19 18 19 19 19 18 18 17 17 18 20 18 16 16 16 17 18 18 19 18 17 17 19 21 23 24 25 26 24 22 23 23 23 22 24 27 27 29 29 28 29 30 31 32 32
7 5 4 4 5 7 8 9 10 11 12 11 11 12 13 12 12 13 13 13 14 13 13 12 12 14 14 9 8 14 17 17 18 19 19 19 19 19 19 19 19 18 18 19 19 19 19 19 19 18 18 17 19 20 17 17 18 18 19 19 19 18 14 15 18 20 22 22 22 24 28 26 22 23 23 22 24 28 31 33 34 32 31 32 32 32 32 33
6 5 5 7 8 10 11 12 13 13 12 12 12 13 13 13 14 15 16 15 13 11 11 11 11 14 13 9 14 18 17 19 20 21 20 19 18 18 17 18 18 17 18 20 20 20 20 19 18 18 18 18 20 19 17 19 20 20 20 19 20 19 15 17 23 24 23 22 22 25 30 29 23 23 24 23 27 32 36 35 33 31 31 33 33 33 33 33
7 7 8 10 11 12 13 14 15 14 14 14 14 14 14 15 16 17 17 15 11 9 9 11 12 14 14 15 18 19 19 21 21 19 17 17 17 17 17 18 18 18 20 20 20 20 19 19 19 17 18 20 20 19 19 21 20 19 20 18 21 24 24 23 24 26 25 24 26 27 29 31 29 28 27 28 34 39 38 31 29 30 31 32 32 32 33 33
8 10 12 13 14 14 14 15 16 15 15 15 15 15 15 15 15 15 15 15 13 11 10 13 15 13 13 18 20 19 19 17 15 14 15 17 17 16 17 19 19 20 21 20 21 21 21 21 19 19 20 20 19 18 19 19 17 17 20 22 23 27 30 28 26 26 25 26 27 26 29 34 34 33 32 36 40 39 32 26 27 30 30 31 32 32 33 33
11 13 15 16 16 15 16 16 16 15 15 15 16 16 16 15 13 11 12 17 19 16 13 13 15 12 13 18 19 16 14 14 16 17 18 18 16 17 19 20 21 20 20 21 22 23 22 19 18 20 21 21 19 19 19 18 19 22 24 26 27 30 35 36 32 27 27 29 28 27 32 37 37 38 40 41 38 33 27 25 27 30 31 31 32 32 32 32
14 16 17 18 17 17 18 17 17 16 16 16 16 17 16 14 12 10 10 15 19 21 18 14 13 13 14 16 14 14 16 19 22 20 18 18 17 18 19 20 20 20 21 22 22 21 19 17 19 21 21 22 22 25 25 23 27 30 29 30 31 33 36 39 36 31 30 31 31 33 35 36 40 44 45 40 33 27 23 24 27 30 31 32 32 32 32 32
17 18 19 19 19 19 19 18 17 16 16 17 17 17 16 14 14 13 13 14 16 18 19 17 12 12 15 16 16 18 22 23 23 21 19 19 19 18 18 20 20 20 21 21 20 20 19 19 21 20 22 25 28 31 27 22 26 29 30 32 34 37 39 38 36 33 33 33 35 38 38 39 44 47 45 38 27 20 20 23 27 30 32 32 32 31 31 32
18 19 20 20 19 19 19 18 17 16 16 17 17 17 17 17 15 15 15 16 16 17 18 18 17 15 16 18 20 21 22 22 21 19 18 19 19 19 19 20 20 21 20 21 23 23 23 23 23 24 27 29 29 30 26 22 24 27 29 31 34 41 43 38 36 34 34 36 39 40 42 45 47 46 42 34 24 17 18 22 27 31 32 32 31 31 31 32
19 20 21 20 19 19 18 18 17 16 15 15 16 15 15 15 13 13 13 13 17 22 21 20 20 18 15 17 19 20 21 21 19 17 17 18 19 18 18 19 20 20 21 25 26 25 25 25 26 28 28 27 28 28 26 25 26 28 30 31 36 41 43 40 37 33 32 37 39 40 42 44 42 40 35 29 23 17 17 22 27 30 31 31 31 30 31 32
19 20 20 19 18 17 17 16 16 15 14 14 14 14 13 13 12 13 13 14 20 23 22 21 20 16 13 14 16 18 19 18 16 16 17 17 18 18 18 20 22 22 25 27 26 25 25 26 28 28 25 26 28 29 29 28 28 29 30 33 38 39 42 41 33 31 35 37 40 41 41 38 34 31 29 25 20 16 19 23 27 30 30 31 30 30 31 31
18 19 18 17 16 16 16 16 14 13 12 10 10 11 13 14 15 15 14 17 21 21 21 21 20 17 15 14 15 17 17 14 12 14 17 17 18 19 21 23 24 24 26 26 25 25 26 27 27 25 23 24 28 31 30 28 28 28 29 34 38 37 42 43 36 36 39 39 41 40 34 30 28 27 26 22 19 17 20 24 27 29 29 30 30 30 30 29
17 17 16 16 16 16 16 15 12 10 9 7 7 9 12 14 16 16 16 18 19 19 20 19 19 19 17 15 15 16 17 16 15 17 18 19 20 22 23 25 24 24 25 27 28 26 26 26 24 23 21 22 30 31 29 29 27 26 30 34 37 39 38 41 43 41 40 39 37 31 26 27 28 26 24 20 19 20 22 25 27 29 29 29 30 29 27 27
15 16 16 15 16 16 14 12 9 7 6 5 5 7 9 9 12 14 16 18 20 19 18 19 19 20 19 18 16 15 17 19 19 19 20 22 22 22 23 25 25 23 24 28 26 24 25 23 22 21 17 23 31 27 27 31 30 31 32 31 37 40 36 37 42 41 41 36 28 24 24 27 27 21 20 20 20 22 23 26 28 29 29 29 28 26 24 25
15 16 16 15 15 14 11 8 5 4 4 5 5 5 6 5 6 10 13 16 19 19 18 17 18 20 20 19 17 15 17 19 20 22 23 23 22 22 23 25 26 22 24 28 24 22 23 20 21 19 16 25 28 24 26 29 34 38 34 34 39 39 37 38 38 38 38 30 25 27 19 17 25 23 21 24 22 24 26 27 28 29 29 28 26 25 24 25
16 16 15 14 12 9 7 4 2 2 4 5 5 4 4 5 5 3 7 11 16 19 19 17 17 19 19 19 19 16 15 19 22 22 22 22 22 23 22 23 25 22 24 27 23 21 21 20 21 17 18 26 24 22 25 28 36 39 37 40 40 36 37 38 37 34 30 25 27 29 15 12 25 27 24 25 25 26 27 28 30 31 30 27 25 25 26 28
15 14 13 11 8 6 4 2 2 2 3 4 4 3 3 4 5 3 1 5 12 17 18 17 16 18 19 19 19 18 15 18 21 18 18 20 23 24 20 21 23 19 23 28 26 24 22 20 19 16 21 27 23 23 26 31 37 37 39 41 37 36 36 36 37 28 23 27 26 21 14 14 21 24 22 22 25 26 29 30 31 31 28 25 24 26 29 33
13 12 10 8 5 4 3 2 2 3 4 4 3 3 4 4 4 2 1 2 7 12 15 16 16 17 20 20 19 19 17 17 17 18 20 22 23 24 20 20 22 17 21 29 28 26 23 20 18 19 26 27 22 23 27 33 35 37 40 38 36 38 36 36 31 24 27 26 14 15 17 10 15 22 21 19 24 26 29 31 31 29 26 24 25 29 35 41
11 9 7 6 4 2 2 2 3 4 5 5 5 4 5 5 5 5 5 3 5 10 12 14 15 16 18 18 18 18 17 16 17 20 21 21 23 25 21 21 23 17 19 28 27 24 23 19 18 24 30 27 22 23 28 32 34 37 38 36 40 40 39 36 26 29 34 18 10 25 26 11 14 27 24 18 21 24 28 30 29 26 23 25 29 35 44 51
8 6 5 4 3 2 2 3 3 4 5 6 7 5 5 6 5 4 4 2 5 8 10 12 14 15 15 15 14 15 16 16 17 18 18 17 20 23 20 21 24 18 19 28 28 26 24 17 19 27 29 25 23 27 33 33 34 35 33 38 46 44 41 34 26 31 26 9 14 29 31 20 13 22 24 18 19 21 24 26 23 21 23 30 38 46 55 60
6 4 3 2 2 2 2 2 3 3 4 4 5 5 4 5 3 3 3 1 4 7 9 12 14 15 15 15 15 15 17 17 16 16 19 20 22 27 27 29 31 28 28 34 32 31 26 18 22 30 27 24 28 35 38 36 36 34 32 40 45 41 37 27 24 25 10 6 19 26 33 27 11 17 25 21 22 22 20 20 18 22 30 39 49 57 61 61
4 3 2 2 3 2 2 3 3 4 4 3 2 2 4 4 4 6 4 1 2 5 8 11 13 15 15 16 17 17 17 20 20 20 25 27 28 33 35 35 37 33 32 36 35 33 28 20 23 29 24 22 31 41 40 39 37 32 33 39 28 19 20 14 13 13 3 10 25 31 34 24 15 24 28 25 29 27 22 20 20 29 40 50 59 62 61 60
3 3 3 3 3 3 3 4 3 4 4 3 3 3 4 5 6 7 6 2 2 4 8 11 13 14 15 16 18 18 18 21 23 22 25 27 27 31 32 33 35 31 29 31 33 35 30 23 25 28 21 19 28 37 37 38 34 25 31 34 17 7 9 7 8 8 6 16 32 37 28 16 18 23 24 30 35 31 26 23 27 41 53 61 64 63 61 61
4 4 4 4 4 4 5 5 4 4 4 4 4 5 7 8 8 8 9 6 4 4 7 11 13 13 16 17 18 19 19 22 25 23 24 25 27 30 32 33 33 32 31 29 28 30 23 17 25 28 19 17 27 31 30 33 28 23 28 29 22 19 12 8 8 7 8 18 31 32 16 10 17 23 29 36 35 32 29 28 39 53 60 64 63 61 61 62
5 5 5 4 4 5 5 5 5 5 5 5 6 7 9 10 10 9 9 8 7 6 6 10 13 12 15 17 18 20 20 21 24 23 23 26 27 30 32 33 34 34 34 29 26 26 20 19 25 23 16 19 29 31 29 31 27 23 28 28 29 30 20 15 16 19 20 17 19 19 12 16 27 31 34 32 28 29 29 36 51 58 61 62 59 59 62 66
5 5 6 6 5 5 5 4 4 4 5 5 5 8 10 11 10 9 8 8 9 9 7 8 12 12 14 16 17 19 19 20 23 22 22 25 25 28 30 32 34 34 33 29 25 23 23 27 27 20 18 25 31 30 27 27 24 21 26 32 32 26 16 13 18 26 26 14 10 12 16 28 33 27 26 27 26 28 34 49 58 59 60 59 57 62 68 73
7 7 7 6 5 4 4 4 4 4 4 3 5 10 14 14 12 10 10 9 10 11 10 9 11 13 14 16 17 18 17 19 21 22 23 24 24 26 29 31 32 32 32 29 25 22 24 32 31 21 23 32 32 28 26 25 24 21 26 33 31 20 14 12 11 16 14 8 11 16 22 30 24 16 25 31 29 35 48 58 60 57 57 57 61 69 72 70
8 7 6 5 4 3 3 4 4 4 5 5 8 13 15 15 13 12 11 11 11 11 12 11 11 13 15 16 18 18 18 18 21 23 23 23 23 23 26 29 31 32 32 29 26 26 26 30 30 25 29 35 31 28 31 28 22 21 27 34 30 18 13 14 10 7 8 7 11 20 25 22 17 21 32 33 35 47 58 61 59 56 56 61 70 73 67 60
7 7 6 4 3 3 3 4 4 4 5 7 11 14 14 14 14 13 11 11 11 11 12 12 12 13 15 17 18 20 20 19 22 24 22 23 23 21 23 28 29 30 32 30 28 29 25 20 22 29 36 36 32 30 30 25 19 23 32 37 34 22 16 19 14 7 8 8 9 18 20 14 21 33 34 32 43 56 61 59 57 57 62 70 72 67 59 56
6 5 4 4 4 4 3 5 5 5 7 9 11 14 14 14 14 13 12 11 11 11 12 12 13 14 15 17 18 20 20 18 20 23 21 23 24 21 23 27 28 28 29 30 30 31 28 17 21 36 42 35 31 27 21 18 20 29 37 37 34 31 28 28 21 10 7 6 7 11 11 18 33 36 31 38 53 61 59 55 57 64 70 72 67 59 57 60
4 3 3 4 4 4 3 5 6 8 10 12 14 15 15 14 13 13 12 11 11 11 12 12 13 14 15 16 17 20 19 17 19 21 21 24 24 22 24 26 28 28 27 30 31 32 31 23 25 40 45 38 35 29 23 23 26 34 38 35 32 34 33 23 14 14 15 12 13 10 9 24 38 33 34 49 59 59 54 55 64 72 72 68 61 57 60 63
3 2 3 4 5 5 5 6 8 9 11 13 14 14 15 14 13 12 11 11 11 11 11 12 13 14 15 16 17 19 19 16 17 20 21 23 23 23 25 26 27 27 26 28 30 33 34 27 29 39 41 37 35 32 31 32 35 38 38 36 36 36 30 14 8 19 23 18 21 18 12 25 36 36 46 59 58 53 54 62 71 73 69 64 59 60 64 60
3 3 5 5 4 5 6 7 9 10 11 12 13 14 14 13 13 12 11 11 11 11 11 12 13 14 15 16 17 18 20 17 16 20 22 23 24 24 25 26 27 26 25 26 28 31 29 25 33 42 42 40 37 33 32 33 38 40 36 37 39 34 28 18 15 23 21 16 21 15 10 25 43 48 56 59 52 52 61 70 72 69 66 63 62 65 62 54
4 5 6 5 4 5 7 7 6 8 11 12 13 13 13 13 13 12 12 11 10 10 11 12 13 14 15 16 16 18 20 17 17 20 22 23 24 24 24 26 26 25 25 26 27 29 24 23 30 31 29 34 33 29 32 38 40 38 35 37 37 32 29 26 25 25 16 16 24 14 12 35 55 58 59 54 51 59 69 72 69 65 64 64 65 63 56 52
5 5 5 6 6 5 6 8 7 6 9 11 12 12 12 12 12 12 11 11 10 10 11 12 13 14 15 16 17 18 19 18 17 19 22 23 23 23 24 25 25 24 25 26 27 27 25 25 25 18 11 14 17 21 31 39 39 39 39 38 33 30 28 28 29 23 16 24 31 22 26 50 63 61 57 53 57 69 74 71 68 66 65 66 62 55 52 55
5 5 5 6 7 5 4 8 8 6 7 9 10 11 12 11 12 11 11 10 10 10 11 12 13 14 14 16 17 17 19 19 18 19 22 22 23 24 24 24 24 23 25 27 28 27 27 26 25 21 17 19 25 30 31 32 34 40 43 37 31 27 27 30 31 25 25 33 36 35 42 56 64 61 55 58 67 73 73 71 69 69 67 63 55 51 53 56
4 4 3 3 5 5 5 7 9 7 6 8 9 10 11 11 11 10 10 10 10 10 11 11 12 13 14 15 15 16 18 18 17 19 20 21 22 23 24 24 23 22 25 28 27 28 29 28 27 28 29 31 34 33 30 30 35 40 39 32 29 29 29 33 32 31 34 31 33 47 55 54 59 58 56 64 71 71 71 71 69 68 65 56 51 52 55 54
4 4 3 2 3 5 6 7 9 8 7 7 8 10 11 11 10 10 9 10 10 10 10 10 11 12 13 14 14 15 16 16 17 19 19 20 22 22 23 24 22 23 27 27 29 29 29 29 30 33 37 37 32 30 32 36 39 38 31 26 28 29 30 34 35 37 39 32 36 54 57 51 54 57 60 68 69 68 70 69 67 65 58 52 52 55 55 53
3 3 3 3 4 5 6 7 8 8 7 6 7 9 10 11 11 10 9 9 9 10 10 10 11 12 13 14 14 15 16 17 19 19 20 21 21 22 23 22 22 25 27 27 30 29 28 31 32 34 41 39 32 32 36 40 39 30 21 24 29 28 29 35 37 38 41 41 46 53 52 51 54 58 65 70 69 68 69 68 67 61 54 53 54 54 53 54
3 2 3 3 3 5 7 6 6 7 7 5 6 8 9 10 10 9 9 9 9 9 9 9 10 11 13 14 15 16 16 18 19 20 20 21 21 22 22 21 22 24 26 27 28 28 30 33 32 35 41 39 35 36 40 40 30 17 19 29 31 30 34 38 39 44 48 48 49 48 48 52 57 63 70 71 69 70 70 69 64 56 51 54 54 53 54 54
2 1 1 1 3 5 7 6 6 6 6 5 6 7 9 9 9 9 9 8 8 9 9 9 10 11 13 14 16 16 16 17 18 19 20 20 20 20 20 22 22 23 25 26 26 29 31 33 36 37 38 39 38 39 43 38 20 13 26 33 28 31 39 41 44 51 51 49 49 45 44 53 63 70 72 72 71 70 70 67 60 52 52 54 54 55 55 55
1 1 1 1 4 6 7 6 6 6 6 5 6 7 8 9 8 7 7 7 7 8 9 9 10 11 12 14 16 16 16 16 17 18 18 18 19 18 18 20 21 23 26 26 27 30 31 34 39 36 35 40 40 39 44 35 18 17 29 28 26 34 41 45 54 57 51 47 45 40 44 57 68 71 71 72 72 71 69 63 54 51 54 54 55 56 56 57
Wind_Direction
167 167 167 171 179 183 173 153 148 143 99 25 20 11 9 6 359 356 354 355 355 355 358 5 12 19 26 33 38 38 34 31 34 33 24 20 26 29 26 23 22 15 8 9 11 9 1 353 347 343 336 323 311 302 296 289 281 278 276 275 278 282 287 292 293 290 288 288 286 283 282 283 285 286 286 287 288 286 286 287 289 290 288 284 280 276 271 267
164 167 168 169 173 172 163 152 147 120 37 18 12 8 7 2 2 3 0 2 2 6 11 18 25 33 39 42 41 38 34 34 38 37 29 30 32 30 26 21 20 14 8 7 6 6 0 351 346 341 338 331 318 305 296 291 286 284 281 282 287 290 294 298 299 297 293 291 288 288 288 287 288 289 290 293 294 291 290 292 292 293 291 287 283 278 273 268
158 159 161 162 163 162 157 152 146 71 23 13 10 9 7 4 8 8 8 13 19 28 32 36 39 42 46 42 40 41 39 38 40 37 31 32 30 27 24 17 13 9 6 3 360 360 356 349 343 339 338 334 324 310 298 294 290 287 286 290 295 297 299 302 303 302 298 295 293 294 293 290 291 294 296 298 297 294 297 298 295 296 295 291 287 280 274 269
152 153 155 158 159 159 158 158 125 36 19 15 16 11 10 11 15 17 22 33 43 50 51 53 49 47 49 42 41 48 48 42 37 33 28 26 25 24 18 11 7 3 360 357 356 356 351 345 341 338 337 334 326 315 301 297 294 290 292 296 300 302 303 303 301 301 301 297 296 299 298 295 296 297 298 297 297 298 303 304 297 297 296 293 290 281 274 268
150 151 154 156 156 160 163 148 56 30 23 23 20 16 18 21 28 34 42 54 59 63 63 61 55 53 52 45 46 49 44 37 30 25 23 21 20 17 11 8 2 356 355 356 356 354 348 345 342 338 337 332 326 318 307 303 301 298 301 303 304 306 304 301 297 296 297 293 292 297 299 298 297 297 297 297 300 302 307 305 296 297 294 291 292 284 276 270
153 155 154 154 158 162 156 94 42 34 33 28 25 28 33 39 47 54 62 67 68 68 65 63 62 59 56 48 47 45 37 33 27 20 18 16 15 12 10 6 359 358 360 360 356 349 347 347 343 340 336 330 325 322 314 310 309 307 308 306 304 304 302 298 295 292 289 287 289 296 299 299 297 297 299 300 302 303 308 304 294 297 294 289 291 287 279 271
160 159 154 155 158 153 121 63 44 42 39 34 36 45 53 60 65 68 71 70 68 66 65 65 64 62 56 45 43 41 31 25 21 16 14 13 13 14 13 8 5 6 4 358 352 349 351 349 343 338 334 329 325 322 319 317 314 310 309 307 305 303 300 297 295 293 289 288 290 295 297 296 294 296 301 302 301 302 304 298 292 297 293 287 288 286 279 271
164 161 159 157 151 127 81 54 50 51 49 49 57 67 73 74 73 72 72 71 69 66 64 60 59 59 50 43 42 36 23 20 18 16 14 13 16 17 16 13 10 9 4 358 356 357 356 349 342 337 334 331 327 324 323 320 315 312 311 309 306 303 299 296 296 294 292 291 291 294 296 293 293 299 304 302 297 295 294 292 292 293 290 285 283 281 275 271
169 166 162 152 131 94 67 59 64 65 65 72 79 82 80 76 75 76 77 75 70 65 61 57 59 55 44 40 36 25 21 20 17 18 18 18 19 18 17 16 14 11 5 1 1 360 356 351 345 339 336 334 330 327 325 322 318 316 313 308 305 302 299 297 295 294 294 293 293 295 296 295 296 302 305 299 292 289 292 295 294 290 287 281 275 272 270 270
174 171 160 138 108 85 74 77 79 79 85 91 91 86 81 78 78 82 85 82 76 69 64 57 49 41 33 30 23 15 22 22 20 22 20 20 19 17 17 16 14 11 5 2 1 357 354 351 346 341 339 336 332 330 328 325 321 318 311 305 301 299 301 304 303 300 297 295 296 298 300 300 302 305 305 298 292 292 296 296 292 289 283 275 269 267 266 264
178 168 148 118 101 93 91 94 92 95 98 96 94 88 84 84 85 89 87 82 76 67 58 49 40 35 29 20 14 26 32 29 26 24 23 22 19 17 17 14 12 9 4 2 359 355 353 351 348 344 341 340 337 334 332 327 322 318 309 303 302 304 311 316 313 306 300 298 301 303 304 304 307 307 302 294 293 295 295 293 291 287 279 272 269 265 262 259
175 156 132 115 111 106 104 102 101 103 102 100 98 92 90 89 87 83 75 69 63 58 54 46 37 38 29 11 31 41 36 32 28 26 24 21 18 16 14 11 9 6 3 1 358 355 355 352 349 347 345 343 338 335 332 326 321 316 308 301 299 301 305 313 316 314 310 307 310 314 310 309 314 308 297 291 292 293 294 294 290 282 274 271 266 261 258 256
164 144 130 123 117 111 110 108 106 104 102 103 101 97 95 88 82 72 63 58 55 59 57 47 44 41 29 26 44 42 35 31 28 25 21 17 16 14 13 11 6 4 4 1 358 357 355 353 351 350 347 339 334 334 330 323 319 312 305 300 299 298 297 312 322 323 320 312 317 324 316 316 322 312 301 299 298 298 299 294 284 272 267 265 260 257 256 254
151 138 130 123 117 116 115 112 107 103 103 104 102 100 94 85 77 67 61 56 57 70 65 51 52 46 35 40 45 40 34 30 25 20 17 16 15 14 14 9 6 5 4 1 359 357 354 354 352 348 343 337 335 333 326 321 319 312 307 306 312 311 310 320 327 325 321 314 317 323 315 316 321 314 309 309 307 304 301 291 275 264 261 259 256 255 255 254
143 133 127 122 121 121 117 112 108 106 106 105 101 97 88 80 73 69 65 61 64 74 69 54 52 48 39 43 44 38 35 30 25 24 22 19 15 14 11 7 8 6 2 0 359 356 355 354 348 343 342 339 335 327 321 321 319 320 321 320 323 321 319 326 332 328 321 316 319 320 313 314 317 314 312 313 309 304 298 283 266 259 256 255 254 253 253 254
136 130 127 125 123 119 115 114 112 111 110 105 99 91 81 74 70 76 73 65 64 65 62 54 52 51 42 43 43 39 38 33 31 31 25 19 15 13 10 9 9 4 1 360 358 356 354 349 341 340 342 338 336 334 334 336 335 338 338 332 330 329 327 330 335 333 326 322 323 322 318 317 317 315 314 313 309 301 290 272 258 254 253 253 252 252 252 254
133 132 130 126 120 116 116 116 115 115 110 103 94 84 78 74 71 78 80 70 64 59 56 54 55 54 49 47 43 39 38 33 32 30 23 19 17 14 9 8 6 1 2 0 355 352 347 344 344 344 342 341 346 348 350 351 344 342 340 333 330 331 330 331 333 334 329 324 324 324 323 319 316 316 315 313 307 295 279 262 254 251 249 249 249 250 253 256
136 135 131 125 120 118 118 117 117 115 108 99 90 83 79 77 73 71 75 73 65 60 56 53 59 61 53 46 38 35 33 30 27 23 20 18 15 13 8 6 5 2 1 356 350 347 347 350 347 342 341 347 353 353 358 357 343 338 335 332 330 329 329 332 334 334 329 326 327 328 326 320 316 316 315 314 307 289 269 256 251 247 245 244 246 249 252 256
137 134 129 125 123 123 123 122 121 115 108 98 88 81 75 73 71 69 76 79 73 67 58 51 54 56 49 39 33 31 31 30 25 18 17 14 11 11 8 5 4 2 357 353 352 351 353 351 344 343 348 354 357 355 355 349 337 334 331 329 329 328 327 331 334 333 330 327 328 327 322 317 315 314 313 312 306 290 268 253 244 241 240 241 243 247 251 255
134 131 129 128 128 128 128 127 125 119 111 97 83 75 73 76 76 73 83 85 71 63 57 50 48 48 47 41 34 30 28 27 22 17 15 14 12 10 8 6 3 360 356 357 358 355 352 348 350 356 359 359 356 351 346 340 334 331 326 325 328 328 325 327 331 329 328 326 323 322 317 312 310 310 309 308 305 292 267 251 242 238 236 238 242 246 251 254
133 134 133 131 130 129 129 128 124 117 104 92 86 79 77 82 79 72 73 73 65 60 56 50 48 48 49 48 40 33 31 22 15 17 17 15 13 9 8 6 3 3 2 0 359 355 351 350 356 0 358 356 352 346 339 335 331 327 324 324 326 326 324 325 329 328 328 325 321 320 315 308 308 308 307 303 295 277 257 246 239 236 235 237 242 245 250 254
135 139 138 134 132 129 129 127 119 108 93 87 94 92 85 81 76 69 64 67 65 58 53 48 44 45 45 47 38 34 35 26 17 22 21 18 15 12 9 5 5 6 3 359 358 358 354 353 357 355 351 353 349 341 333 328 327 325 325 326 326 330 329 328 331 331 329 324 321 321 315 306 308 308 304 296 280 261 249 241 235 234 235 238 243 247 252 256
139 143 140 136 134 133 131 126 112 99 88 84 95 109 103 85 76 71 64 65 63 57 53 46 41 41 41 41 33 29 29 26 24 23 21 20 17 16 9 4 6 5 1 359 359 360 356 353 351 347 348 350 345 337 329 325 327 328 331 331 331 335 333 326 328 330 327 323 322 323 313 305 307 304 294 283 270 258 247 240 236 235 237 241 246 251 256 263
141 143 141 137 136 136 131 119 104 90 80 79 89 126 130 98 77 70 64 62 57 51 46 40 36 35 37 36 30 25 24 23 19 19 21 19 17 16 9 5 4 2 3 1 360 0 357 351 345 344 346 345 342 337 332 331 330 333 338 338 335 335 331 322 323 328 326 326 330 328 317 308 309 303 288 278 265 255 246 241 239 238 240 243 248 255 263 272
137 137 137 136 136 135 126 111 98 80 72 82 90 128 154 144 100 72 62 57 49 44 40 35 31 29 31 32 26 21 21 19 15 16 17 14 15 14 9 8 1 358 4 2 1 1 356 350 345 344 342 342 343 339 338 337 332 335 341 340 337 333 327 323 325 328 325 328 335 329 320 308 307 302 292 284 268 255 249 244 242 241 242 246 253 264 274 283
134 134 134 135 137 131 119 107 98 80 72 82 89 117 157 179 176 106 57 48 38 35 34 30 29 26 27 29 24 21 17 14 15 15 11 8 12 12 9 8 360 356 2 3 3 1 356 352 348 344 338 342 347 346 345 342 336 338 341 338 335 331 327 326 329 329 321 321 328 323 309 288 300 303 299 288 272 261 254 248 247 245 245 251 262 274 284 293
131 132 133 134 134 124 112 96 93 79 69 73 76 119 162 182 190 207 22 32 21 22 25 23 24 24 25 28 25 23 21 14 11 9 6 9 10 8 7 6 3 358 359 3 4 1 359 354 349 343 340 345 354 353 350 345 338 337 338 335 334 332 330 330 331 330 320 317 324 331 315 283 289 305 309 291 274 264 254 249 248 248 252 261 274 287 297 306
128 128 129 126 120 108 95 78 73 65 69 69 66 124 158 157 157 168 122 57 8 11 16 17 20 21 22 25 23 22 22 13 7 4 6 9 7 5 4 2 6 4 360 5 5 1 359 355 354 349 344 350 360 356 347 343 339 337 339 336 333 334 334 336 335 334 332 321 320 351 341 296 287 310 315 295 278 264 253 251 251 255 264 276 290 304 313 319
123 121 115 109 99 86 82 78 71 77 80 69 68 117 156 145 128 112 97 80 10 9 14 15 19 22 21 22 21 18 16 10 8 7 4 4 3 3 2 1 9 14 4 6 7 4 1 360 1 352 347 352 358 352 345 343 343 341 340 335 332 337 340 341 339 336 338 331 322 343 345 335 309 315 317 299 281 267 256 255 257 263 277 296 310 318 323 326
116 105 97 93 79 69 77 79 86 99 102 81 71 89 147 154 141 104 88 57 14 12 13 16 20 25 26 23 20 16 16 13 10 7 1 2 3 2 5 7 13 19 6 5 9 8 5 6 3 354 351 352 348 344 344 347 349 345 343 338 336 340 344 341 335 336 340 332 325 335 335 333 316 314 319 305 289 281 264 255 260 279 303 317 323 326 328 330
98 84 78 64 53 64 72 99 123 127 127 112 82 75 108 149 152 91 96 58 14 9 11 20 22 24 24 21 20 16 15 13 9 6 3 4 3 1 7 10 10 11 5 3 6 5 7 9 2 357 352 347 341 340 343 349 351 347 347 348 342 341 343 338 330 339 347 297 322 328 326 325 303 302 314 307 302 298 275 262 275 303 319 326 329 330 332 333
88 76 63 52 64 77 84 110 135 137 140 153 148 107 101 114 88 76 102 165 354 1 12 24 25 24 21 18 19 14 12 12 8 7 6 6 3 3 9 10 8 8 3 360 359 359 4 6 360 357 350 343 341 340 341 347 351 349 350 353 350 337 338 336 327 337 312 289 317 322 320 316 291 298 309 312 314 307 290 286 301 318 326 330 331 332 333 333
105 99 93 95 90 86 92 105 121 133 139 144 145 154 142 115 83 76 91 90 30 24 25 27 25 23 21 18 16 12 10 11 9 9 9 6 2 6 11 10 11 10 2 358 356 354 358 2 357 354 351 346 343 343 343 345 351 357 355 356 359 341 331 325 316 319 300 302 312 318 316 300 295 307 315 319 317 308 299 305 320 329 332 333 333 332 330 327
105 107 111 116 109 97 97 102 108 124 145 144 129 133 130 113 102 98 87 71 66 59 38 31 25 21 20 18 14 11 10 10 9 10 8 3 3 6 8 7 8 7 3 1 359 353 350 351 351 350 351 348 344 346 345 344 351 358 356 355 351 341 327 301 309 309 306 309 313 319 317 293 308 319 319 318 317 309 306 319 331 333 333 331 329 326 323 321
102 111 116 115 115 113 111 109 102 104 123 134 133 139 132 114 113 112 88 68 64 59 50 36 26 23 22 17 13 11 10 9 7 7 5 4 6 6 5 4 3 2 3 2 358 353 338 333 346 349 350 347 344 347 347 346 351 352 351 352 344 335 316 292 300 306 307 306 310 314 305 310 319 318 316 319 318 310 315 332 336 332 330 327 324 322 321 322
109 112 109 105 109 117 124 126 116 114 119 119 126 133 126 116 117 115 91 74 60 51 54 37 25 27 25 19 15 11 9 8 6 5 6 6 7 6 3 2 359 359 3 1 358 354 335 332 347 355 352 349 347 348 351 351 349 345 347 348 342 334 324 306 305 313 315 306 307 311 306 318 321 316 322 326 319 320 332 337 333 329 326 324 323 324 323 323
116 114 107 104 106 112 127 133 132 138 137 135 131 120 112 110 112 108 94 77 62 53 50 40 28 26 24 20 17 12 10 9 6 5 8 8 6 5 2 360 357 356 359 360 357 353 335 331 345 356 349 348 348 347 351 356 353 349 348 348 345 340 345 351 326 317 319 302 307 316 314 319 321 323 331 329 328 336 337 332 329 327 327 326 325 324 324 325
117 113 110 111 112 124 141 137 133 134 125 127 131 119 110 109 106 101 89 73 65 57 49 45 35 25 22 19 14 11 9 8 8 7 9 9 4 0 0 358 356 354 355 356 355 353 341 330 339 348 344 346 351 348 350 356 356 349 347 350 353 347 335 345 338 308 316 313 306 313 315 319 327 330 330 330 336 338 333 329 329 328 327 326 324 325 327 328
111 111 114 118 124 136 150 145 145 145 133 131 128 117 109 108 102 93 83 71 64 57 49 46 37 27 22 17 12 9 7 7 8 7 7 6 1 357 358 357 356 354 352 352 352 352 347 329 325 337 341 346 352 350 349 350 346 344 348 352 355 350 329 327 324 294 305 313 305 314 318 325 332 329 327 333 336 334 331 330 329 326 325 325 325 328 330 327
105 112 118 121 123 123 136 145 137 136 142 139 127 115 108 106 98 89 83 73 64 58 50 43 35 28 21 16 13 9 7 5 5 5 5 1 359 356 354 355 356 353 350 350 350 349 349 330 312 330 341 347 352 353 349 347 347 347 350 352 351 347 339 331 324 310 304 303 307 318 310 313 324 326 325 331 332 330 331 329 326 325 325 326 329 331 328 325
113 127 128 129 131 130 143 145 134 135 139 131 119 112 106 101 95 91 86 74 68 61 50 42 34 27 19 15 14 9 6 4 2 3 2 358 358 355 352 352 353 352 350 350 350 348 346 333 318 330 340 345 349 353 353 353 352 347 347 349 346 341 340 337 327 319 319 308 303 302 283 306 320 326 326 328 330 329 329 327 325 326 327 330 333 329 325 326
133 155 139 129 130 132 129 126 129 136 136 125 115 109 105 99 94 91 84 75 70 60 49 43 32 26 20 14 12 9 6 3 1 0 358 356 356 353 351 352 351 351 350 350 349 346 343 337 329 331 336 343 348 351 352 350 346 343 345 345 339 336 337 335 304 312 315 309 305 299 282 306 321 327 326 328 329 328 327 326 327 328 331 333 331 327 326 327
130 152 146 136 132 129 120 119 131 136 130 120 115 110 103 99 93 88 83 77 69 60 52 42 31 26 19 12 10 8 5 4 360 356 356 355 353 351 350 350 350 349 349 349 348 346 344 341 335 333 335 341 346 347 347 345 341 341 342 340 336 335 334 328 317 316 311 306 314 306 277 309 322 327 327 328 329 327 327 328 330 332 333 332 329 327 327 328
127 141 139 134 132 129 119 114 124 133 129 120 114 110 104 99 93 87 83 78 69 62 53 41 33 26 17 12 9 6 5 5 358 354 354 352 350 349 348 348 349 347 347 348 347 346 347 343 338 335 335 340 344 344 341 339 338 337 336 336 336 334 331 329 332 329 315 313 322 317 293 312 321 326 328 330 329 328 329 331 333 334 332 331 329 328 329 331
136 147 144 131 121 122 124 114 108 121 127 120 115 110 103 98 94 87 84 78 70 63 53 42 33 23 16 12 7 4 4 2 358 354 351 349 348 347 347 348 347 345 345 345 345 345 344 342 341 337 323 323 327 327 329 329 330 333 336 336 336 335 332 334 340 338 325 322 323 314 306 313 321 327 330 331 330 329 332 334 335 334 332 331 331 331 333 334
146 149 150 130 114 115 137 126 116 117 121 118 117 112 104 99 94 89 84 78 70 62 52 43 32 23 17 11 5 3 0 358 357 352 349 349 347 345 346 347 345 344 343 342 343 344 341 341 343 334 316 312 314 318 327 329 326 332 336 336 335 333 330 336 343 340 329 324 319 318 318 317 322 329 332 331 331 332 334 335 335 335 334 333 332 334 335 334
163 159 155 126 114 128 148 135 125 122 118 116 115 111 106 102 98 93 86 77 70 62 53 44 32 24 18 10 5 1 357 355 354 351 349 348 347 345 344 345 344 343 342 342 344 344 339 338 342 335 326 326 326 328 335 335 331 333 335 334 332 329 329 336 341 339 336 328 316 322 325 321 322 330 332 331 332 333 335 336 336 335 335 334 334 336 337 335
171 181 179 152 136 146 150 143 131 121 116 117 116 111 107 104 101 96 88 78 68 60 55 46 33 25 18 10 5 359 355 354 353 352 351 349 348 347 344 344 344 343 343 344 343 343 339 337 340 336 332 334 338 338 339 338 336 336 333 330 330 328 331 338 339 339 338 327 315 322 325 322 325 330 331 330 333 334 335 336 337 336 336 337 339 339 338 337
145 164 160 142 148 154 151 149 139 124 116 118 119 115 110 105 100 94 89 80 68 61 54 43 34 25 17 9 3 359 355 355 355 353 352 351 349 347 347 347 346 343 343 343 342 342 340 337 339 337 332 339 347 344 340 340 338 335 331 333 332 328 331 337 338 338 334 326 323 324 323 324 329 331 330 331 334 335 337 339 340 339 339 341 342 340 339 338
136 147 144 133 155 163 155 153 147 130 123 125 125 121 114 106 100 95 89 80 68 62 52 41 33 23 16 10 4 0 356 354 354 352 351 351 349 348 349 347 344 342 341 342 342 342 340 338 341 337 331 340 350 343 340 343 339 332 338 338 332 329 334 339 340 338 335 330 327 325 322 326 331 332 331 334 336 338 340 342 342 341 342 342 341 340 340 339
137 184 197 166 181 176 164 160 151 133 126 131 131 125 118 110 105 98 90 78 67 61 50 39 31 20 14 9 3 1 357 353 354 352 350 350 349 348 346 343 342 340 340 342 342 344 344 340 342 340 331 336 347 343 340 344 344 342 344 338 332 335 340 341 339 338 336 331 328 327 327 329 331 333 334 337 339 341 343 344 343 343 344 342 341 341 341 339
145 241 264 212 188 182 175 168 156 137 129 135 135 127 120 114 110 104 95 81 68 60 48 37 30 20 13 8 4 2 358 354 355 353 351 350 347 345 343 341 341 340 342 344 343 345 347 342 343 343 330 332 343 341 339 347 357 348 341 332 329 339 342 339 336 337 336 332 329 327 326 329 332 335 337 339 341 343 344 344 344 345 344 341 340 341 340 340